This is the latest recevied weather packets stored in our database for station/object LA6LOA. If no packets are shown the sender has not sent any weather packets the latest 10 day(s).
| Time | Temp. | Humidity | Pressure | Rain* | Wind** | Luminosity | Snow |
|---|---|---|---|---|---|---|---|
| 1777644085 | 9.44° C | 100% | 1006.7 hPa | 0 mm | - | - | - |
| 1777643785 | 9.44° C | 100% | 1006.7 hPa | 0 mm | - | - | - |
| 1777643485 | 8.33° C | 100% | 1006.7 hPa | 0 mm | - | - | - |
| 1777643185 | 7.78° C | 100% | 1006.8 hPa | 0 mm | - | - | - |
| 1777642885 | 7.78° C | 100% | 1007 hPa | 0 mm | - | - | - |
| 1777642585 | 8.33° C | 100% | 1007 hPa | 0 mm | - | - | - |
| 1777642286 | 8.33° C | 100% | 1007.1 hPa | 0 mm | - | - | - |
| 1777641986 | 8.33° C | 100% | 1007.1 hPa | 0 mm | - | - | - |
| 1777641686 | 8.33° C | 100% | 1007 hPa | 0 mm | - | - | - |
| 1777641386 | 8.33° C | 100% | 1007 hPa | 0 mm | - | - | - |
| 1777641086 | 8.33° C | 100% | 1007.1 hPa | 0 mm | - | - | - |
| 1777640786 | 8.89° C | 100% | 1007.1 hPa | 0 mm | - | - | - |
| 1777640486 | 8.89° C | 100% | 1007 hPa | 0 mm | - | - | - |
| 1777640186 | 8.89° C | 100% | 1007 hPa | 0 mm | - | - | - |
| 1777639886 | 8.33° C | 100% | 1007.2 hPa | 0 mm | - | - | - |
| 1777639586 | 8.33° C | 100% | 1007.2 hPa | 0 mm | - | - | - |
| 1777639286 | 8.33° C | 100% | 1007 hPa | 0 mm | - | - | - |
| 1777638986 | 8.33° C | 100% | 1007 hPa | 0 mm | - | - | - |
| 1777638686 | 8.33° C | 100% | 1006.8 hPa | 0 mm | - | - | - |
| 1777638386 | 7.78° C | 100% | 1006.8 hPa | 0 mm | - | - | - |
| 1777638086 | 7.78° C | 100% | 1006.8 hPa | 0 mm | - | - | - |
| 1777637786 | 7.78° C | 100% | 1006.7 hPa | 0 mm | - | - | - |
| 1777637486 | 8.33° C | 100% | 1006.7 hPa | 0 mm | - | - | - |
| 1777637186 | 8.33° C | 100% | 1006.7 hPa | 0 mm | - | - | - |
| 1777636886 | 8.33° C | 100% | 1006.5 hPa | 0 mm | - | - | - |
* Rain latest hour (hover to see other rain measurements)
** Current wind speed in m/s (hover to see current wind gust speed)